GFSMA_con_mlcape_159.txt.gz
CAPE
157 62 10 0 135 87 374 678 268 201 182 319 151 68 12 54 0 25 336 856 1301 1472 1388 1056 1703 1850 1548 1162 1042 1149 1509 1432 1348 903 980 1460 1137 1491 1547 1485 1315 1216 1537
294 80 67 101 73 12 396 607 528 320 28 52 357 8 7 1 0 2 77 668 885 1016 950 1149 1641 1868 1558 1157 1467 1177 1054 1091 1293 956 656 1211 970 1183 1584 1599 1416 1130 1212
4 3 31 31 0 27 418 579 504 469 146 106 169 77 10 0 0 109 89 692 908 995 908 1284 1459 1889 1837 1209 975 1023 1047 1292 1266 1178 608 901 1204 1047 1265 1458 1427 1100 901
1 0 13 0 12 26 384 374 473 443 198 0 20 0 23 22 241 131 222 420 1176 1086 1143 1488 1420 1949 1274 967 1029 979 897 1083 1191 1117 740 991 1165 1196 988 1301 1357 995 744
1 0 0 0 16 23 292 397 500 235 32 3 0 13 10 33 49 204 291 359 505 697 910 1454 1272 1475 1339 1301 871 854 820 750 888 935 861 825 913 1073 942 1207 1208 862 773
12 11 0 0 0 0 233 362 439 247 127 15 1 0 0 1 33 70 122 235 308 864 921 1085 723 1362 983 1028 1057 763 769 737 711 682 652 642 798 825 856 982 1001 844 670
9 19 0 3 0 1 278 460 309 222 117 10 0 0 0 15 0 0 51 118 368 251 454 762 826 979 835 756 750 733 742 707 622 645 575 541 607 691 742 818 856 717 663
204 0 2 0 0 116 462 643 193 41 19 47 142 10 58 60 121 1 8 32 0 105 81 0 398 529 640 675 502 515 661 618 509 505 578 501 479 459 602 613 604 614 619
393 8 8 0 0 31 471 632 789 475 605 330 82 286 155 127 142 0 0 0 0 12 78 0 0 74 575 687 464 415 442 345 306 316 542 482 438 436 388 400 405 432 498
644 172 0 0 12 79 410 950 1508 1219 896 661 294 5 16 203 110 0 0 0 0 4 8 0 0 0 147 459 505 360 318 382 305 273 291 407 252 221 240 265 229 238 181
556 396 134 222 359 475 554 922 1157 1135 1011 859 896 192 6 12 0 0 0 2 0 109 28 1 0 0 0 0 208 388 260 220 246 139 148 266 197 192 86 69 54 36 20
513 589 406 353 368 571 851 973 1269 1022 1017 887 805 444 293 397 191 30 47 0 0 13 40 5 0 0 0 0 205 401 318 227 142 82 0 0 13 119 94 50 13 0 0
474 383 564 678 589 915 1082 1318 1147 906 1301 1121 860 828 394 309 292 110 113 10 6 0 4 1 5 0 0 97 429 274 280 237 66 0 0 0 0 0 3 3 1 0 0
571 463 547 935 777 865 794 945 1189 870 905 1217 829 911 527 536 570 294 314 124 29 22 0 0 30 0 0 28 171 248 126 185 41 5 73 0 0 0 0 0 3 3 2
297 377 664 796 679 702 850 917 723 633 721 809 723 692 572 425 535 407 347 225 53 26 0 0 0 0 0 0 495 149 65 88 85 49 53 137 120 4 1 0 0 0 1
84 250 443 350 387 588 860 968 770 684 448 367 400 603 499 466 504 565 629 262 30 37 0 0 0 0 0 0 368 53 5 29 28 0 20 62 48 87 85 3 1 0 0
216 220 284 253 428 733 950 792 887 677 587 265 149 377 432 665 558 448 523 422 304 95 91 11 76 0 0 155 116 0 0 0 0 0 0 0 0 0 0 0 0 0 0
367 271 609 300 516 561 675 676 548 676 600 639 581 480 547 567 634 458 454 311 291 336 181 196 58 85 0 41 0 0 0 0 1 3 0 0 0 0 0 0 0 0 0
260 411 365 492 464 429 445 474 545 542 577 545 596 692 252 384 492 519 360 214 247 266 178 84 72 131 1 102 14 0 0 0 0 0 0 0 0 0 0 0 0 0 0
398 464 527 553 487 473 638 581 586 542 563 471 694 622 494 408 210 455 361 232 163 156 131 115 54 95 140 130 91 15 0 0 0 0 0 0 0 0 0 0 0 0 0
385 403 475 382 382 299 178 143 235 335 438 498 572 540 462 301 394 319 206 187 116 114 117 35 96 85 87 144 137 57 0 0 0 0 0 0 0 0 0 0 0 1 0
358 380 277 142 88 0 0 0 5 128 345 493 435 406 347 162 150 89 112 36 11 24 71 43 7 9 18 74 103 75 1 0 0 0 0 0 0 0 0 0 0 0 0
96 34 7 1 0 0 0 0 0 64 259 147 143 194 224 97 96 46 21 5 17 27 41 89 94 11 18 0 0 53 2 0 0 0 0 0 0 0 0 0 0 0 0
29 4 0 0 0 0 0 0 0 74 5 0 2 22 71 34 17 30 14 3 0 0 0 0 0 0 0 0 0 1 32 0 0 0 0 0 0 0 0 0 0 0 0
0 0 1 0 0 0 0 0 0 2 0 0 0 0 0 0 0 0 0 0 0 0 0 0 0 0 0 0 0 0 0 0 0 1 0 0 0 0 0 0 0 0 0
0 0 1 1 1 0 0 0 0 0 0 0 0 0 0 0 0 0 0 0 0 0 0 0 0 0 0 0 0 0 0 0 0 0 0 0 2 0 0 0 0 0 0

GFSMA_con_mlcape_162.txt.gz
CAPE
52 15 0 145 173 310 490 288 264 272 275 281 158 51 4 4 17 0 7 116 750 1139 849 987 964 1602 1423 980 1028 1111 1436 1552 1283 1291 1035 998 1252 1544 1543 1516 1363 1394 1266
234 16 14 115 116 253 519 424 304 192 135 89 169 26 0 4 0 0 44 316 593 969 884 1046 1024 1580 1406 1434 1297 1225 1339 1083 1205 1360 943 1031 1058 1248 1484 1612 1421 1177 1033
19 0 16 43 63 202 417 518 404 220 75 112 181 112 0 21 0 0 159 325 635 1107 1033 1160 1245 1753 1138 797 736 719 916 1023 1024 1173 695 631 995 979 1151 1524 1515 1308 1008
0 0 0 22 2 225 348 382 405 415 191 44 35 56 29 40 35 217 281 258 650 1227 1086 1259 1312 1630 777 953 729 706 726 893 1039 992 909 657 959 794 1134 1360 1427 1379 1013
0 0 0 0 1 171 282 332 453 121 82 2 0 0 37 72 116 124 252 315 470 860 1048 1381 1324 1392 1219 858 695 643 677 706 746 828 824 826 927 1138 905 1037 1340 1319 921
0 0 0 0 0 0 279 320 351 170 30 7 0 4 0 28 27 58 164 261 537 707 918 1203 1070 1306 1115 1142 866 622 601 687 666 702 658 668 755 852 875 1046 1214 1150 822
13 0 0 0 0 4 332 422 246 189 88 0 0 0 0 45 11 64 148 254 359 402 617 839 816 974 857 924 822 696 639 554 500 675 556 501 629 698 775 950 1061 890 757
196 19 2 0 0 201 568 553 164 74 18 21 202 79 60 58 113 18 86 38 31 199 15 363 500 660 642 724 829 600 421 385 489 701 605 561 533 648 657 732 786 725 652
265 0 4 0 0 90 498 794 766 552 631 307 92 313 205 153 154 0 0 0 0 111 0 0 0 417 780 694 544 633 221 160 257 562 571 520 429 483 529 512 487 530 525
641 159 0 0 0 139 479 839 1366 1053 731 670 280 65 38 155 79 0 0 0 1 49 0 0 0 2 556 399 560 506 317 195 166 258 435 365 348 406 373 405 377 411 400
742 431 83 113 285 362 529 864 1014 1075 924 759 705 182 40 38 0 0 3 0 17 141 3 43 0 0 0 218 357 355 153 124 97 138 281 245 248 324 363 344 280 195 118
399 570 391 276 341 478 759 873 1048 910 1020 902 808 284 353 446 377 109 113 7 25 4 27 10 0 0 0 31 388 408 163 84 60 0 0 2 109 88 160 256 268 215 176
285 360 446 483 521 656 912 1019 1134 779 1134 1054 798 988 299 359 300 110 165 61 44 0 17 47 0 0 7 425 526 370 209 113 0 0 0 0 0 0 11 53 78 53 23
478 444 469 602 821 808 772 790 1096 882 810 1157 716 773 653 504 454 304 225 259 143 32 18 20 80 0 2 225 317 219 182 53 0 0 0 0 0 0 0 0 0 0 0
438 329 423 593 691 668 714 810 864 631 587 729 702 643 468 416 620 542 347 233 227 74 2 0 0 0 0 4 417 208 128 68 0 0 0 61 0 0 0 0 0 0 0
225 297 219 545 620 422 461 810 938 667 553 307 206 441 557 501 490 542 603 317 97 78 44 0 0 0 0 32 458 98 38 0 0 0 0 0 21 2 7 2 0 0 0
104 68 169 232 268 371 693 706 829 736 602 457 376 192 352 459 430 455 502 341 293 102 145 29 95 0 0 199 66 0 0 0 0 0 0 0 0 0 0 0 0 0 0
270 175 134 315 288 410 465 508 513 618 550 501 639 608 439 598 578 478 441 305 317 252 203 179 104 46 0 72 1 0 0 0 0 0 0 0 0 0 0 0 0 0 0
196 259 295 433 346 404 377 425 368 346 455 467 567 512 488 339 292 479 481 297 294 302 182 123 104 163 23 8 0 0 0 0 0 0 0 0 0 0 0 0 0 0 0
260 242 309 349 304 333 479 485 501 571 566 527 518 477 584 424 224 274 442 286 185 130 99 86 72 100 150 117 43 0 0 0 0 0 0 0 0 0 0 0 1 0 0
372 387 336 374 372 324 113 39 140 246 327 392 451 525 502 288 271 315 377 253 160 104 90 104 71 77 97 94 101 29 0 0 0 0 0 0 0 0 0 0 1 1 0
352 323 279 229 105 0 0 0 0 0 123 257 274 448 393 199 121 65 16 16 19 21 11 27 65 36 9 43 76 56 0 0 0 0 0 0 0 0 0 0 0 0 0
69 37 8 0 0 0 0 0 0 30 90 71 119 217 284 123 122 91 10 0 0 0 0 56 101 16 7 0 0 57 14 0 0 0 0 0 0 0 0 0 0 0 0
1 0 0 0 0 0 0 0 0 2 1 0 0 1 49 31 4 21 0 0 0 0 0 0 0 0 0 0 0 1 20 0 0 2 0 0 0 0 0 0 0 0 0
0 0 0 0 0 0 0 0 0 0 0 0 0 0 0 0 0 0 0 0 0 0 0 0 0 0 0 0 0 0 0 0 0 1 0 0 0 0 0 0 0 0 0
0 0 0 0 0 0 0 0 0 0 0 0 0 0 0 0 0 0 0 0 0 0 0 0 0 0 0 0 0 0 0 1 0 0 0 1 2 0 0 0 0 0 0

GFSMA_con_mlcape_165.txt.gz
CAPE
187 145 126 460 576 1011 1031 864 693 719 546 256 191 119 21 122 127 149 135 250 775 1101 1145 1103 1104 1523 1629 1387 1264 1246 1134 1218 1290 1268 1403 1498 1413 1674 1522 1529 1472 1547 1488
411 165 239 343 355 908 1266 950 915 878 633 336 666 375 78 96 159 139 568 890 763 1091 1198 1198 1132 1548 1615 1486 1070 1017 1205 1283 1058 1105 1143 1207 1163 1344 1485 1534 1495 1484 1436
261 157 152 197 328 680 921 1168 988 792 337 469 482 421 198 357 249 252 936 1145 1244 1373 1210 1283 1264 1665 969 740 684 659 751 1130 1183 1022 1158 788 861 983 997 1398 1544 1512 1423
30 154 104 132 79 573 1057 1116 1070 1161 775 354 168 242 261 292 383 617 760 985 1281 1756 1429 1399 1274 1606 953 805 621 653 708 734 971 1030 919 674 837 1075 1083 1334 1560 1443 1231
36 30 12 52 106 526 849 941 1047 436 368 147 149 235 243 130 240 316 730 1117 1318 1422 1886 1471 1224 1139 1293 918 687 580 651 732 685 802 863 839 846 1073 848 1121 1406 1363 1246
0 69 59 38 137 100 776 933 743 456 233 246 122 143 83 285 137 176 207 879 1485 1580 1762 2212 1828 1283 869 906 724 812 838 628 704 623 626 704 753 1047 855 881 1267 1188 1060
218 68 0 13 102 81 828 1024 673 492 383 136 76 42 113 323 222 340 652 824 1127 1141 1583 1827 1725 1476 860 581 539 654 789 483 775 602 680 580 732 778 780 841 1028 981 886
554 305 191 95 6 646 1086 1147 593 401 347 360 615 172 396 406 524 451 541 393 549 867 486 1307 1462 1560 1090 808 750 544 411 438 798 731 710 592 737 750 675 893 955 724 542
643 145 160 50 4 340 1148 1582 1587 1170 1213 662 379 905 710 359 771 237 168 158 50 787 82 80 721 1530 1372 911 812 532 184 181 592 740 716 562 590 689 693 692 639 509 369
1101 539 89 28 6 642 1226 1659 2154 1769 1407 1351 897 157 465 599 603 81 76 130 143 487 151 203 229 763 1323 850 579 435 360 198 270 480 566 618 557 592 574 494 473 398 330
1296 770 397 506 710 910 1140 1499 2026 1916 1704 1419 1392 631 518 408 82 168 290 277 358 786 88 412 212 388 846 972 814 331 274 192 124 286 283 373 562 600 597 563 423 403 405
978 1044 927 826 913 1029 1434 1726 1794 1601 1794 1597 1458 922 1061 964 803 628 354 416 445 412 586 489 465 31 351 692 640 199 142 74 0 0 47 137 205 463 523 555 494 428 324
810 928 1039 1006 989 993 1500 1763 1503 1484 1842 1688 1208 1201 1017 1078 946 675 760 721 417 398 544 470 5 6 485 1154 847 625 139 0 0 0 0 0 3 64 171 227 273 278 245
1028 968 990 1067 1305 1341 1569 1400 1082 1700 1370 1313 1055 896 1427 1286 1180 1145 779 831 476 597 416 578 604 183 774 1233 844 370 361 0 0 0 0 0 0 0 0 0 6 11 9
1138 1022 964 1110 1187 1129 1240 1468 1050 913 821 1067 875 1091 1281 1197 1456 1388 1283 1004 720 321 387 428 225 296 240 819 865 774 706 0 0 56 80 0 0 0 0 0 0 0 0
1033 1028 956 938 1304 1359 1178 1064 919 851 616 882 742 786 1093 956 828 1269 1371 1173 806 704 524 291 264 255 339 378 758 875 677 37 0 0 0 0 25 9 3 0 0 0 0
761 748 686 733 879 992 1192 733 897 685 650 507 805 851 797 972 961 875 942 1146 947 728 586 637 739 252 372 383 457 506 206 44 0 0 0 0 0 0 0 0 0 0 0
909 876 802 742 896 924 1006 665 650 1175 590 574 551 733 759 802 858 407 628 523 703 576 681 583 613 482 508 583 418 83 0 0 1 1 0 1 0 0 0 0 0 0 0
676 812 826 836 1049 966 1010 1067 989 973 577 806 1016 870 758 882 514 489 348 340 591 702 449 545 739 825 514 180 55 2 2 3 0 0 0 0 1 1 1 1 0 0 0
749 690 659 519 952 991 1011 1185 1047 691 849 1117 1236 1210 735 619 779 802 365 338 368 294 195 132 145 564 838 217 114 62 26 1 0 0 0 0 0 0 0 0 1 0 0
817 695 549 493 584 753 456 477 525 553 638 710 853 1027 962 650 121 268 399 481 364 214 222 41 25 175 398 259 192 142 105 5 4 0 0 0 0 0 0 0 0 1 1
1012 856 746 1033 671 32 0 0 0 248 380 653 747 892 776 313 26 14 13 1 2 50 136 110 38 195 75 55 141 101 33 22 95 0 0 0 0 0 0 0 0 0 0
536 491 379 255 33 0 0 0 0 221 146 155 144 463 584 144 159 120 0 0 0 0 0 53 252 27 78 1 0 67 15 23 72 1 1 3 0 0 0 0 0 0 0
59 56 35 10 0 0 0 0 0 22 10 0 0 5 67 65 1 57 0 0 0 0 0 0 0 0 0 0 0 2 31 1 2 2 2 5 0 0 0 0 0 0 0
5 3 4 4 1 0 0 0 0 0 0 0 0 0 0 0 0 0 0 0 0 0 0 0 0 0 0 0 0 2 5 11 3 3 0 2 3 3 0 0 0 0 0
0 1 1 1 1 0 0 0 0 0 0 0 0 0 0 0 0 0 0 0 0 0 0 0 0 0 0 0 0 0 0 3 0 0 2 1 1 0 3 2 0 0 0

GFSMA_con_mlcape_168.txt.gz
CAPE
727 610 1000 1264 1447 1820 1644 1775 1654 1603 1233 636 641 867 360 477 419 557 595 580 903 1213 1299 1401 1391 1714 1799 1822 1516 1342 1220 1044 951 1209 1387 1450 1656 1643 1590 1633 1584 1553 1611
1103 665 1061 1097 1147 1618 1805 1820 1956 1769 1601 918 1148 524 332 307 807 906 1054 1307 816 1110 1244 1355 1471 1732 1456 1019 912 941 984 1239 1213 758 795 1067 1316 1141 1650 1689 1658 1577 1645
1118 962 724 908 1125 1610 2160 2206 2081 1958 1284 967 823 734 631 743 943 1580 1501 1429 1614 1316 1132 1375 1459 1271 932 983 686 730 717 878 1085 1163 790 768 1171 1227 1367 1425 1561 1594 1478
655 1012 608 720 709 1591 1838 1773 1809 1575 1440 787 462 772 696 846 835 1384 1352 1539 1662 1663 1390 1365 1326 1414 1343 1046 833 619 742 765 792 1010 998 1050 694 846 1048 846 1375 1437 1543
381 609 415 502 892 1374 1580 1539 1765 1286 980 558 426 491 474 721 330 733 1041 1635 1690 1490 1634 1438 1084 905 1336 1264 952 819 997 812 793 793 862 896 938 906 1171 1022 1320 1348 1437
201 554 368 434 674 577 1546 1723 1778 1252 834 784 301 330 353 910 922 827 748 1318 1742 1720 1429 1800 1575 1256 480 738 815 1023 890 589 817 647 585 670 760 796 828 957 1055 1049 1160
1186 803 316 338 564 450 1776 2132 1552 1425 1167 991 841 479 570 779 593 946 1414 1430 1633 1153 1485 1771 1482 1374 1023 430 532 684 570 870 852 712 630 547 643 765 773 574 821 1026 909
1424 966 639 650 516 1014 2058 2095 1982 1197 1215 1281 1245 1016 782 940 890 804 732 985 1353 1237 985 1369 1457 1673 1304 917 390 309 296 543 970 775 624 636 688 743 794 814 937 928 763
1520 1184 926 742 496 1271 1768 2114 2283 2042 1386 1517 1503 1266 813 475 1053 498 438 673 499 755 567 539 942 1564 1448 1139 1131 532 126 291 745 802 709 572 692 721 759 773 829 727 589
1696 1343 752 478 268 1385 1952 2084 1913 1986 1811 1346 1603 804 1328 1082 792 459 421 477 515 638 886 614 753 1298 1528 1118 432 88 160 192 477 593 700 624 610 685 786 685 559 474 420
1980 1475 1276 1183 1048 1667 2010 1755 1641 1984 1741 1369 1341 1211 1700 1160 908 733 423 728 848 1062 784 550 620 874 1351 1252 1118 207 84 0 116 309 340 613 685 711 632 634 565 453 436
1235 1750 1616 1725 1820 1962 1913 1689 1597 1960 2016 1668 1346 1234 1104 1254 1236 913 377 535 769 953 958 1016 762 698 984 1190 660 49 55 0 0 0 20 172 500 579 741 720 679 653 595
710 1118 1952 1964 1368 1744 2079 1672 1665 1631 1764 1928 1866 1138 1104 1219 1489 1345 778 593 622 850 1001 872 272 215 583 1153 1017 647 31 0 0 0 0 0 41 302 520 640 646 592 481
786 1284 1334 1491 1835 1764 1850 1344 1235 1093 1431 1554 1679 1288 1055 1021 996 1333 814 912 441 686 881 1201 573 481 813 1184 843 480 301 0 0 0 0 0 0 0 6 55 112 168 251
1111 1219 1352 1621 1835 1517 1714 1124 992 983 1073 1052 1133 1268 1087 1010 1087 963 1040 1115 952 491 346 1069 776 581 793 1076 871 807 838 0 0 1 0 0 0 0 0 0 0 0 0
1071 1359 1474 1658 1165 1034 1433 1042 1112 934 1152 1018 847 1235 1181 1216 971 873 783 736 701 499 389 461 733 840 748 877 871 1221 746 0 0 0 0 0 0 0 0 0 0 0 0
834 845 1391 1576 1271 908 884 1163 1226 1012 921 794 765 1032 1079 1221 829 870 722 722 682 655 272 981 1032 1099 1177 956 813 1023 476 472 0 0 0 0 0 0 0 0 0 0 0
885 1189 1465 1409 1412 1429 1508 1089 1005 820 773 815 993 958 1010 847 1146 934 635 865 900 690 439 1024 1010 1060 1297 865 877 812 429 100 82 0 0 0 0 0 0 0 0 0 0
1314 1394 1324 1066 806 994 1068 943 1038 1179 1128 721 766 818 903 909 994 755 945 724 712 740 671 483 1069 912 1117 807 388 465 347 179 1 0 0 0 2 2 0 0 0 0 0
1406 1308 1426 949 772 796 1002 1102 1121 1026 1057 890 1114 1289 1293 930 925 1067 896 867 766 690 645 587 382 169 1218 868 726 608 286 211 34 0 0 0 0 0 0 0 1 0 0
1385 1276 1410 1036 911 1011 1029 1373 1123 1168 1337 1132 1132 1336 1283 835 351 343 737 882 334 531 454 604 283 391 327 807 507 333 413 132 23 12 0 0 0 0 0 0 0 0 0
1266 1187 1295 1040 959 868 48 0 246 927 1264 1264 1287 1302 1384 228 1 6 27 14 33 223 213 169 84 84 257 473 456 257 127 74 74 8 0 1 0 0 0 0 0 0 0
869 1022 1159 1110 1168 1243 0 0 0 665 965 1032 859 1255 1201 516 377 81 0 0 0 0 0 22 82 163 492 333 345 293 165 162 79 2 5 0 0 0 0 0 0 0 0
928 1122 1243 1125 745 23 0 0 35 730 561 346 205 218 409 307 153 358 40 0 0 0 0 0 0 0 0 0 24 135 198 16 2 0 0 2 0 0 0 1 0 0 0
97 78 195 208 56 4 0 0 9 291 193 20 1 0 46 114 0 1 1 0 0 0 0 0 0 0 0 0 0 52 86 28 4 4 0 1 1 2 0 1 4 0 0
1 1 2 4 0 4 0 0 0 74 57 1 2 0 0 0 0 0 0 0 0 0 0 0 0 0 0 0 0 0 5 27 0 1 0 2 4 0 3 0 1 0 0

GFSMA_con_mlcape_171.txt.gz
CAPE
600 716 1330 1178 1179 1010 1360 1588 1778 2073 1738 1009 1250 836 664 630 756 804 1035 881 1244 1313 1484 1551 1711 1873 1907 1602 1331 1246 1299 1181 1062 1008 1341 1477 1637 1670 1632 1617 1548 1558 1557
908 972 1514 1084 1034 966 1250 1622 2139 2052 1932 1207 1113 686 480 642 1166 1352 1660 1060 935 1079 1403 1508 1658 1241 1061 935 792 771 822 979 1155 1109 950 1189 1347 1524 1634 1632 1615 1578 1489
1546 1301 1138 1078 1200 1611 2239 2052 2435 2224 1523 1170 968 1071 924 1135 1437 1797 1478 1731 1440 1196 1282 1414 1558 1094 1132 894 800 513 572 604 874 1008 818 826 623 1166 1114 1492 1591 1485 1500
1345 1536 834 886 1187 1652 1185 1026 1674 1403 1089 759 729 986 839 1076 932 1691 1372 1501 1435 1471 1690 1344 1197 1047 1356 1070 909 866 987 903 793 807 941 777 842 935 1254 1170 1196 1313 1310
902 1318 628 943 1501 1387 1062 1097 1571 1432 971 883 674 550 759 841 558 529 1174 1345 1359 1427 1623 1350 1203 841 989 1095 1020 1142 929 801 868 667 843 1014 900 814 893 950 954 1123 1204
599 781 447 824 1192 874 1201 1596 1988 1224 860 1080 628 611 601 1043 1287 1146 1026 1228 1481 1199 1396 1257 1768 1202 605 730 724 971 696 950 684 702 613 744 751 754 839 924 971 1054 1137
1108 1449 650 881 745 693 2140 2066 1893 1477 1027 1430 1517 764 834 1105 870 915 1153 1153 1317 967 1039 1477 1525 1459 977 881 503 419 548 1193 1075 837 740 564 648 708 866 849 876 1067 1027
1597 1358 1139 833 1270 884 1812 2211 2001 1207 902 1388 1222 1279 422 137 1019 739 775 857 1329 940 1056 1322 1268 1378 1002 1160 733 182 271 828 991 823 681 669 713 688 655 558 749 994 920
1591 1761 1162 1425 1116 1570 1862 1747 2248 1151 1446 904 1699 1183 845 648 91 513 657 683 657 759 670 873 1164 1496 984 1029 1404 414 161 590 710 881 681 753 673 726 808 760 836 823 676
1593 1625 1101 1146 1284 1288 1636 1892 1639 1941 724 834 1131 859 1409 1096 1102 469 477 742 897 960 1117 949 1040 1399 1284 1338 582 11 51 202 518 632 856 685 687 766 785 864 756 659 553
1594 1572 1645 1165 968 1893 1784 1870 1945 1616 1776 859 924 622 1210 859 953 443 447 792 926 898 1003 628 840 1023 1141 958 1501 78 12 0 136 255 628 753 740 680 740 749 683 557 481
1002 1602 1622 1695 1476 1898 1466 1646 1956 1850 1779 1527 1449 387 461 707 399 755 319 378 448 708 888 1017 856 802 697 1301 517 59 0 0 0 6 99 514 622 780 781 740 685 656 613
659 1710 1696 1807 1651 1638 1730 1686 1774 1885 1562 1759 1604 1112 527 443 713 740 821 371 682 534 852 854 514 692 765 1018 1000 483 0 0 0 0 0 10 297 529 599 766 787 760 682
338 1718 1601 1710 1610 1673 1809 1791 1478 1381 1934 1357 1359 1524 824 730 413 926 691 592 348 522 950 1139 763 582 778 1159 861 692 120 0 0 0 0 0 0 9 148 365 421 432 522
660 1641 1235 1233 1428 1785 1940 1895 1405 1296 1411 1229 1032 1125 1167 855 907 613 474 1031 246 202 304 358 851 886 1098 1095 822 1017 1009 0 0 0 0 0 0 0 0 0 0 0 21
1471 1308 1323 1484 1364 1587 1548 1794 1363 1414 1393 1223 1406 1453 1121 1116 468 465 895 578 782 538 401 248 773 951 847 1362 777 1352 910 18 0 0 0 0 0 0 0 0 0 0 0
1309 1476 1372 1222 1385 1476 1479 1536 1475 1631 1406 1170 1104 1070 995 1077 840 969 387 508 523 586 667 700 1333 1462 1552 1272 976 1543 661 626 0 0 0 0 0 0 0 0 0 0 0
1312 1278 1364 1408 1651 1324 1432 1619 1506 1265 1215 942 1136 1029 954 782 1175 1242 513 1157 912 794 977 655 1253 1139 1791 1337 1367 1085 797 428 0 0 0 1 2 2 2 1 0 0 0
1243 1253 1465 1589 1508 1335 1350 1395 1350 1316 1202 805 950 990 848 986 964 1211 1310 1120 856 988 851 604 1010 1129 1684 1293 1221 1103 710 313 0 0 0 2 0 0 0 0 0 0 0
1552 1333 1436 1492 1366 1311 1265 1322 1373 1350 1120 973 1022 1068 1240 1245 999 1202 1218 1265 916 831 681 750 579 263 1024 1055 1015 693 496 365 0 0 0 0 0 0 0 2 0 0 0
1387 1444 1447 1515 1316 1297 1133 1331 1446 1239 1310 1165 1162 1215 1303 924 430 451 777 720 487 275 180 258 368 323 406 380 626 811 653 195 60 0 0 0 0 0 0 0 1 1 0
1518 1459 1396 1196 1306 864 185 504 628 1019 1113 1157 1204 1412 1564 378 44 0 27 69 96 210 180 103 89 71 58 182 317 276 267 193 63 0 0 0 0 0 0 0 0 0 0
1697 1620 1311 1418 1227 1043 48 157 49 473 958 1317 1278 1201 1138 831 477 238 3 0 0 0 0 167 120 41 131 72 268 278 199 282 76 6 0 0 0 0 0 0 0 0 0
1294 1254 1440 1439 1335 121 1 6 0 588 984 894 753 720 1072 809 421 576 346 77 0 0 0 6 5 0 0 0 15 225 318 29 2 0 0 1 0 0 0 0 0 0 0
1017 1142 1186 1287 984 47 0 0 18 732 452 197 73 1 42 388 6 30 148 6 0 0 0 0 0 0 0 0 0 74 113 75 9 1 0 0 0 1 0 0 0 0 0
7 2 0 4 2 0 0 0 20 414 258 68 6 1 0 0 0 0 38 1 0 0 0 0 0 0 0 0 0 0 3 70 0 2 1 0 1 0 2 1 5 4 0

GFSMA_con_mlcape_174.txt.gz
CAPE
400 364 1475 843 534 134 290 486 540 1658 1292 625 1046 659 226 271 633 671 687 664 899 1195 1521 1650 1848 1609 1758 1381 1229 1256 1349 1194 1238 1066 1266 1335 1387 1440 1469 1452 1394 1420 1444
284 882 876 1645 915 233 1047 1898 997 1533 1111 926 652 554 220 351 1005 1303 1109 833 1133 1245 1232 1516 1507 1037 1007 853 795 708 688 814 973 1134 975 1381 1379 1402 1437 1464 1567 1468 1364
1458 1376 1501 1067 1167 1558 1451 931 1391 2130 1452 1045 1059 705 866 530 1317 1725 1241 1118 1203 1058 1241 1387 1050 921 1142 794 767 365 474 551 725 785 921 878 932 1310 1326 1454 1412 1419 1318
1391 974 969 1173 963 1310 919 901 1065 721 736 715 821 1109 765 1246 670 1752 1864 960 1340 1292 939 1210 1043 909 1177 1029 898 923 767 669 798 763 812 777 859 793 1146 937 1359 1268 1227
855 1299 895 834 459 1188 1077 448 607 795 833 902 821 568 756 873 257 319 810 1207 1657 886 205 1078 1080 847 1320 1069 969 983 759 1059 816 699 884 949 971 1016 916 1098 917 983 1128
706 421 713 671 339 1059 1242 1848 1271 944 898 978 1035 272 125 234 825 547 713 951 1242 1179 1304 1321 1181 975 1181 851 597 538 938 1003 874 704 642 836 899 909 848 712 783 1093 1139
432 1035 930 816 436 838 860 1625 1704 1852 908 1461 353 9 0 0 76 872 1025 691 914 1036 1186 1540 1476 1226 943 683 327 275 962 996 933 746 665 534 757 745 899 755 950 886 1064
1301 1402 1270 1011 1145 1131 1137 1648 1892 1016 77 524 41 1 10 0 0 1 879 1278 848 1029 1207 900 1444 1516 1200 1119 401 179 725 882 849 739 731 747 697 807 874 779 792 1048 1011
1257 1661 1120 1323 1310 919 183 628 1357 891 74 365 1200 854 26 11 0 27 697 704 780 950 787 766 1245 890 1412 1170 561 161 208 541 857 855 763 721 736 725 761 599 721 780 871
1261 1620 1281 1287 1374 1300 494 590 1628 1447 1184 568 155 582 1463 597 407 144 786 801 642 1007 936 1044 819 1112 860 964 91 0 0 178 410 830 747 696 731 727 695 705 840 839 702
1381 1480 1498 1175 975 259 15 1471 1522 1292 1490 1089 1417 1035 935 26 0 149 458 892 794 1182 645 681 903 880 997 1241 255 0 0 0 72 289 649 745 698 786 744 690 693 685 625
1164 1746 1676 1737 1350 200 0 1326 1743 2128 1500 1613 1244 1281 1313 386 75 481 650 600 681 1019 698 625 887 556 1156 930 336 0 0 0 0 0 151 375 699 774 823 710 602 570 538
684 1243 1456 1552 1414 1250 1410 1543 1725 1696 1598 1456 1255 1106 1097 836 170 0 68 567 448 327 575 810 435 761 1077 735 289 0 0 0 0 0 0 47 285 475 764 760 782 741 693
121 1256 1470 1509 1540 1507 1143 1738 1351 1475 851 1486 1494 1289 1043 783 668 248 594 578 238 332 947 1042 547 280 804 768 580 87 0 0 0 0 0 0 0 53 254 319 394 491 423
365 513 912 1682 1816 1234 1365 1805 1406 1365 1602 1025 1113 1096 961 202 70 731 1123 964 489 249 124 507 699 802 790 678 342 794 58 0 0 0 0 0 0 0 0 0 31 135 156
208 0 534 1382 1376 1618 1613 1743 1509 1224 1030 1268 1237 823 806 1191 1064 1235 259 499 625 702 523 146 149 1059 1125 970 385 1286 245 0 0 0 0 0 0 0 0 0 0 0 0
931 950 1029 1550 1422 1466 1458 1406 1429 1030 903 1039 1181 987 819 970 851 1111 1051 784 558 710 453 587 529 848 1030 931 1056 893 119 0 0 0 0 0 0 0 0 0 0 0 0
1406 1267 1410 1375 1191 1358 1499 1405 1357 1056 699 766 889 898 913 729 1089 1024 940 865 733 808 614 416 556 1014 1159 1355 1154 949 611 34 0 0 0 0 0 1 1 1 0 0 0
1553 1466 1508 1509 1711 1229 1166 1480 1637 1228 921 1090 877 822 901 604 899 824 539 890 916 614 898 952 563 836 867 1273 1106 599 85 0 0 2 1 0 0 0 0 0 0 0 0
1242 1532 1400 1353 1451 1609 1455 1352 1296 1167 1157 1199 1188 1063 1039 1181 803 882 922 861 921 682 561 450 439 443 232 368 323 319 95 0 0 0 0 0 0 0 0 0 0 0 0
1322 1299 1540 1266 1444 1333 1113 1320 1233 1114 1247 1201 1172 1104 835 538 269 424 629 669 583 508 171 81 42 131 80 7 157 156 178 2 0 0 0 0 0 0 0 1 3 2 0
1347 1200 1131 1353 1254 1321 317 427 1141 910 1201 1080 1058 1172 936 273 37 36 17 32 53 243 145 185 118 93 47 142 52 102 133 31 4 0 0 0 0 0 0 0 0 0 0
1052 1073 1204 1497 1512 757 97 200 316 655 479 838 1153 1241 1084 780 659 135 4 5 0 0 0 65 255 100 69 5 32 36 52 177 57 0 0 0 0 0 0 0 0 0 0
1436 1219 1131 1247 1009 86 0 8 84 283 447 925 654 408 1015 843 508 710 484 13 0 0 0 0 0 0 0 0 2 200 121 20 1 0 0 1 0 0 0 0 0 0 0
754 754 654 669 715 26 0 0 15 419 746 286 42 0 51 149 1 62 95 0 0 0 0 0 0 0 0 0 0 51 25 17 2 1 0 0 0 0 0 0 0 0 0
243 74 34 32 34 0 0 0 2 533 356 106 4 0 0 0 0 0 24 0 0 0 0 0 0 0 0 0 0 0 15 32 0 2 4 0 1 0 2 1 0 0 0